EIN7855 EGKK-EIDW

Flight info

Callsign EIN7855
Flight time 0h 58m
Altitude 22000
Route LAM L10 BPK/N0453F380 L10 WAL M146 AGLIL UL28 PENIL M144 BAGSO BAGSO4L
Aircraft A20N/M-SDE2E3FGHIRWXY/LB1

Departure

Time 2026-04-16 10:29
Airport London Gatwick Airport (EGKK)

Arrival

Time 2026-04-16 11:28
Airport Dublin Airport (EIDW)
Time Latitude Longitude Altitude Speed Heading
2026-04-16 10:10 51.15367 -0.16346 208 ft 0 kts 356°
2026-04-16 10:19 51.15360 -0.16345 208 ft 3 kts 356°
2026-04-16 10:20 51.15342 -0.16344 208 ft 3 kts 356°
2026-04-16 10:20 51.15324 -0.16338 208 ft 3 kts 309°
2026-04-16 10:20 51.15319 -0.16322 218 ft 0 kts 259°
2026-04-16 10:24 51.15318 -0.16332 218 ft 4 kts 259°
2026-04-16 10:24 51.15312 -0.16377 212 ft 4 kts 259°
2026-04-16 10:24 51.15306 -0.16426 211 ft 5 kts 259°
2026-04-16 10:25 51.15300 -0.16478 218 ft 5 kts 260°
2026-04-16 10:25 51.15294 -0.16534 210 ft 5 kts 260°
2026-04-16 10:25 51.15287 -0.16593 213 ft 5 kts 259°
2026-04-16 10:25 51.15277 -0.16632 211 ft 0 kts 223°
2026-04-16 10:28 51.15268 -0.16640 218 ft 11 kts 208°
2026-04-16 10:28 51.15174 -0.16636 212 ft 13 kts 186°
2026-04-16 10:28 51.15132 -0.16725 210 ft 10 kts 258°
2026-04-16 10:29 51.15110 -0.16883 213 ft 37 kts 257°
2026-04-16 10:29 51.14994 -0.17705 218 ft 116 kts 257°
2026-04-16 10:29 51.14766 -0.19344 355 ft 171 kts 256°
2026-04-16 10:29 51.14501 -0.21209 1126 ft 174 kts 255°
2026-04-16 10:30 51.14228 -0.23095 1987 ft 176 kts 256°
2026-04-16 10:30 51.13949 -0.25060 2590 ft 193 kts 256°
2026-04-16 10:30 51.13709 -0.27258 3247 ft 208 kts 265°
2026-04-16 10:30 51.13936 -0.29551 4193 ft 215 kts 289°
2026-04-16 10:31 51.14854 -0.31472 5072 ft 226 kts 320°
2026-04-16 10:31 51.16344 -0.32392 5943 ft 239 kts 352°
2026-04-16 10:31 51.17998 -0.31859 6758 ft 253 kts 27°
2026-04-16 10:31 51.19231 -0.29846 7519 ft 261 kts 64°
2026-04-16 10:32 51.19787 -0.27081 8370 ft 263 kts 78°
2026-04-16 10:32 51.20149 -0.24201 9227 ft 267 kts 80°
2026-04-16 10:32 51.20495 -0.21264 10062 ft 272 kts 80°
2026-04-16 10:32 51.20854 -0.18227 10591 ft 289 kts 80°
2026-04-16 10:33 51.21251 -0.14965 11039 ft 309 kts 79°
2026-04-16 10:33 51.21681 -0.11491 11407 ft 332 kts 79°
2026-04-16 10:33 51.22149 -0.07749 11772 ft 355 kts 79°
2026-04-16 10:33 51.22662 -0.03774 12163 ft 376 kts 76°
2026-04-16 10:34 51.23702 0.00103 12575 ft 387 kts 55°
2026-04-16 10:34 51.25488 0.03240 12924 ft 386 kts 36°
2026-04-16 10:34 51.27781 0.05402 13040 ft 383 kts 20°
2026-04-16 10:34 51.30352 0.06480 13614 ft 382 kts
2026-04-16 10:35 51.32996 0.06887 14599 ft 383 kts
2026-04-16 10:35 51.35670 0.07246 15373 ft 388 kts
2026-04-16 10:35 51.38380 0.07628 16117 ft 392 kts
2026-04-16 10:35 51.41103 0.08037 16862 ft 396 kts
2026-04-16 10:36 51.43870 0.08473 17602 ft 401 kts
2026-04-16 10:36 51.46656 0.08746 18327 ft 400 kts 352°
2026-04-16 10:36 51.49374 0.08014 18966 ft 395 kts 339°
2026-04-16 10:36 51.51958 0.06528 19600 ft 393 kts 330°
2026-04-16 10:37 51.54416 0.04609 20241 ft 394 kts 328°
2026-04-16 10:37 51.56898 0.02661 20873 ft 400 kts 332°
2026-04-16 10:37 51.59586 0.01343 21547 ft 407 kts 340°
2026-04-16 10:37 51.62329 0.00140 22014 ft 405 kts 334°
2026-04-16 10:38 51.64840 -0.01807 22082 ft 398 kts 322°
2026-04-16 10:38 51.67026 -0.04518 22086 ft 394 kts 313°
2026-04-16 10:38 51.68980 -0.07607 22080 ft 393 kts 309°
2026-04-16 10:38 51.70802 -0.10887 22080 ft 392 kts 307°
2026-04-16 10:39 51.72557 -0.14243 22075 ft 391 kts 306°
2026-04-16 10:39 51.74295 -0.17629 22076 ft 391 kts 306°
2026-04-16 10:39 51.76034 -0.21005 22074 ft 391 kts 306°
2026-04-16 10:39 51.77761 -0.24321 22075 ft 392 kts 306°
2026-04-16 10:40 51.79552 -0.27724 22076 ft 392 kts 306°
2026-04-16 10:40 51.81323 -0.31063 22156 ft 392 kts 306°
2026-04-16 10:40 51.83094 -0.34389 22131 ft 390 kts 306°
2026-04-16 10:40 51.84866 -0.37712 22128 ft 389 kts 306°
2026-04-16 10:41 51.86632 -0.41030 22128 ft 389 kts 306°
2026-04-16 10:41 51.88398 -0.44350 22131 ft 389 kts 306°
2026-04-16 10:41 51.90164 -0.47676 22129 ft 389 kts 306°
2026-04-16 10:41 51.91928 -0.51005 22130 ft 389 kts 306°
2026-04-16 10:42 51.93637 -0.54316 22126 ft 387 kts 303°
2026-04-16 10:42 51.95240 -0.57818 22122 ft 386 kts 302°
2026-04-16 10:42 51.96825 -0.61408 22120 ft 386 kts 301°
2026-04-16 10:42 51.98364 -0.64974 22118 ft 386 kts 301°
2026-04-16 10:43 51.99865 -0.68499 22114 ft 386 kts 301°
2026-04-16 10:43 52.01386 -0.72089 22108 ft 386 kts 301°
2026-04-16 10:43 52.02905 -0.75682 22106 ft 386 kts 301°
2026-04-16 10:43 52.04424 -0.79276 22148 ft 385 kts 301°
2026-04-16 10:44 52.05946 -0.82876 22126 ft 385 kts 301°
2026-04-16 10:44 52.07462 -0.86460 22122 ft 385 kts 301°
2026-04-16 10:44 52.08978 -0.90048 22121 ft 385 kts 301°
2026-04-16 10:44 52.10490 -0.93628 22112 ft 385 kts 301°
2026-04-16 10:45 52.12010 -0.97234 22095 ft 387 kts 301°
2026-04-16 10:45 52.13530 -1.00843 22097 ft 386 kts 300°
2026-04-16 10:45 52.15046 -1.04446 22096 ft 385 kts 300°
2026-04-16 10:45 52.16557 -1.08044 22095 ft 385 kts 300°
2026-04-16 10:46 52.17975 -1.11725 22095 ft 383 kts 296°
2026-04-16 10:46 52.19279 -1.15488 22098 ft 382 kts 295°
2026-04-16 10:46 52.20549 -1.19298 22100 ft 382 kts 295°
2026-04-16 10:46 52.21795 -1.23124 22102 ft 381 kts 294°
2026-04-16 10:47 52.23026 -1.26953 22104 ft 381 kts 294°
2026-04-16 10:47 52.24253 -1.30789 22103 ft 381 kts 294°
2026-04-16 10:47 52.25480 -1.34629 22102 ft 381 kts 294°
2026-04-16 10:47 52.26706 -1.38462 22102 ft 381 kts 294°
2026-04-16 10:48 52.27933 -1.42297 22126 ft 381 kts 294°
2026-04-16 10:48 52.29161 -1.46133 22105 ft 381 kts 294°
2026-04-16 10:48 52.30391 -1.49981 22100 ft 381 kts 294°
2026-04-16 10:48 52.31604 -1.53777 22096 ft 381 kts 294°
2026-04-16 10:49 52.32828 -1.57617 22093 ft 381 kts 294°
2026-04-16 10:49 52.34052 -1.61458 22101 ft 381 kts 294°
2026-04-16 10:49 52.35469 -1.65140 22101 ft 385 kts 303°
2026-04-16 10:49 52.37268 -1.68430 22105 ft 389 kts 310°
2026-04-16 10:50 52.39239 -1.71493 22103 ft 391 kts 313°
2026-04-16 10:50 52.41291 -1.74436 22100 ft 392 kts 314°
2026-04-16 10:50 52.43380 -1.77311 22099 ft 393 kts 315°
2026-04-16 10:50 52.45491 -1.80174 22100 ft 393 kts 315°
2026-04-16 10:51 52.47598 -1.83030 22106 ft 393 kts 315°
2026-04-16 10:51 52.49701 -1.85898 22104 ft 393 kts 315°
2026-04-16 10:51 52.51794 -1.88776 22078 ft 393 kts 314°
2026-04-16 10:51 52.53890 -1.91674 22078 ft 393 kts 314°
2026-04-16 10:52 52.55972 -1.94567 22069 ft 393 kts 314°
2026-04-16 10:52 52.58066 -1.97485 22066 ft 393 kts 314°
2026-04-16 10:52 52.60151 -2.00396 22086 ft 394 kts 314°
2026-04-16 10:52 52.62242 -2.03319 22066 ft 393 kts 314°
2026-04-16 10:53 52.64327 -2.06238 22066 ft 394 kts 314°
2026-04-16 10:53 52.66412 -2.09161 22062 ft 394 kts 314°
2026-04-16 10:53 52.68497 -2.12085 22061 ft 393 kts 314°
2026-04-16 10:53 52.70585 -2.15018 22061 ft 393 kts 314°
2026-04-16 10:54 52.72671 -2.17950 22061 ft 393 kts 314°
2026-04-16 10:54 52.74723 -2.20840 22088 ft 393 kts 314°
2026-04-16 10:54 52.76807 -2.23779 22063 ft 394 kts 314°
2026-04-16 10:54 52.78890 -2.26720 22067 ft 394 kts 314°
2026-04-16 10:55 52.80974 -2.29666 22064 ft 394 kts 314°
2026-04-16 10:55 52.83053 -2.32609 22067 ft 394 kts 314°
2026-04-16 10:55 52.85133 -2.35556 22065 ft 394 kts 314°
2026-04-16 10:55 52.87212 -2.38505 22066 ft 394 kts 314°
2026-04-16 10:56 52.89292 -2.41460 22068 ft 394 kts 314°
2026-04-16 10:56 52.91370 -2.44417 22063 ft 394 kts 314°
2026-04-16 10:56 52.93451 -2.47381 22061 ft 394 kts 314°
2026-04-16 10:56 52.94825 -2.49341 22062 ft 394 kts 314°
2026-04-16 10:57 52.96902 -2.52307 22061 ft 394 kts 314°
2026-04-16 10:57 52.98974 -2.55268 22084 ft 394 kts 313°
2026-04-16 10:57 53.01056 -2.58248 22064 ft 394 kts 313°
2026-04-16 10:57 53.03812 -2.62201 22048 ft 395 kts 313°
2026-04-16 10:58 53.05885 -2.65178 22056 ft 395 kts 313°
2026-04-16 10:58 53.07289 -2.67195 22045 ft 395 kts 313°
2026-04-16 10:58 53.09369 -2.70189 22035 ft 395 kts 313°
2026-04-16 10:58 53.11443 -2.73177 22041 ft 395 kts 313°
2026-04-16 10:59 53.13517 -2.76170 22036 ft 395 kts 313°
2026-04-16 10:59 53.15592 -2.79168 22031 ft 395 kts 313°
2026-04-16 10:59 53.17665 -2.82167 22071 ft 395 kts 313°
2026-04-16 10:59 53.19739 -2.85172 22073 ft 395 kts 313°
2026-04-16 11:00 53.21808 -2.88173 22097 ft 394 kts 313°
2026-04-16 11:00 53.23876 -2.91176 22073 ft 394 kts 313°
2026-04-16 11:00 53.25940 -2.94179 22075 ft 393 kts 313°
2026-04-16 11:00 53.27978 -2.97147 22075 ft 393 kts 313°
2026-04-16 11:01 53.30040 -3.00154 22075 ft 393 kts 313°
2026-04-16 11:01 53.32099 -3.03161 22071 ft 393 kts 313°
2026-04-16 11:01 53.34163 -3.06180 22069 ft 393 kts 313°
2026-04-16 11:01 53.36223 -3.09196 22071 ft 393 kts 313°
2026-04-16 11:02 53.38282 -3.12217 22059 ft 394 kts 313°
2026-04-16 11:02 53.40296 -3.15323 22054 ft 392 kts 310°
2026-04-16 11:02 53.42237 -3.18527 22049 ft 391 kts 309°
2026-04-16 11:02 53.44144 -3.21791 22040 ft 391 kts 309°
2026-04-16 11:03 53.46034 -3.25070 22040 ft 391 kts 308°
2026-04-16 11:03 53.47920 -3.28349 22040 ft 391 kts 308°
2026-04-16 11:03 53.51712 -3.34909 22038 ft 391 kts 309°
2026-04-16 11:04 53.53616 -3.38186 22034 ft 391 kts 309°
2026-04-16 11:04 53.55505 -3.41470 21784 ft 387 kts 307°
2026-04-16 11:04 53.57125 -3.44992 20846 ft 385 kts 298°
2026-04-16 11:04 53.58331 -3.49008 19827 ft 386 kts 289°
2026-04-16 11:05 53.59275 -3.53228 19045 ft 384 kts 285°
2026-04-16 11:05 53.60091 -3.57500 18422 ft 381 kts 284°
2026-04-16 11:05 53.60836 -3.61764 18078 ft 380 kts 283°
2026-04-16 11:05 53.61399 -3.66107 18022 ft 378 kts 276°
2026-04-16 11:06 53.61712 -3.70501 18020 ft 377 kts 274°
2026-04-16 11:06 53.61947 -3.74900 18021 ft 376 kts 272°
2026-04-16 11:06 53.62137 -3.79298 18020 ft 376 kts 272°
2026-04-16 11:06 53.62306 -3.83693 18021 ft 376 kts 272°
2026-04-16 11:07 53.62467 -3.88031 18018 ft 376 kts 272°
2026-04-16 11:07 53.62631 -3.92429 18020 ft 376 kts 272°
2026-04-16 11:07 53.62799 -3.96832 18021 ft 377 kts 272°
2026-04-16 11:07 53.62969 -4.01237 18021 ft 377 kts 272°
2026-04-16 11:08 53.63141 -4.05640 18021 ft 377 kts 272°
2026-04-16 11:08 53.63313 -4.10049 18020 ft 377 kts 272°
2026-04-16 11:08 53.63484 -4.14450 18020 ft 377 kts 272°
2026-04-16 11:08 53.63654 -4.18865 18021 ft 376 kts 272°
2026-04-16 11:09 53.63821 -4.23265 18018 ft 376 kts 271°
2026-04-16 11:09 53.63987 -4.27659 18017 ft 376 kts 271°
2026-04-16 11:09 53.64151 -4.32055 18018 ft 376 kts 271°
2026-04-16 11:09 53.64313 -4.36448 17880 ft 373 kts 271°
2026-04-16 11:10 53.64473 -4.40787 17127 ft 370 kts 271°
2026-04-16 11:10 53.64628 -4.45053 16419 ft 368 kts 271°
2026-04-16 11:10 53.64782 -4.49368 16078 ft 369 kts 271°
2026-04-16 11:10 53.64934 -4.53696 16008 ft 370 kts 271°
2026-04-16 11:11 53.65085 -4.58024 16021 ft 370 kts 271°
2026-04-16 11:11 53.65234 -4.62347 16016 ft 369 kts 271°
2026-04-16 11:11 53.65382 -4.66659 15963 ft 368 kts 271°
2026-04-16 11:11 53.65528 -4.70931 15330 ft 364 kts 271°
2026-04-16 11:12 53.65671 -4.75198 14508 ft 364 kts 271°
2026-04-16 11:12 53.65812 -4.79444 13766 ft 362 kts 271°
2026-04-16 11:12 53.65951 -4.83676 12967 ft 360 kts 271°
2026-04-16 11:12 53.66088 -4.87868 12329 ft 356 kts 271°
2026-04-16 11:13 53.66224 -4.92035 12054 ft 356 kts 271°
2026-04-16 11:13 53.66359 -4.96209 12009 ft 357 kts 271°
2026-04-16 11:13 53.66491 -5.00344 12011 ft 356 kts 271°
2026-04-16 11:13 53.66623 -5.04508 12014 ft 356 kts 271°
2026-04-16 11:14 53.66754 -5.08681 12009 ft 356 kts 271°
2026-04-16 11:14 53.66882 -5.12812 11653 ft 350 kts 271°
2026-04-16 11:14 53.67012 -5.16921 10866 ft 350 kts 271°
2026-04-16 11:14 53.67141 -5.21026 10299 ft 350 kts 271°
2026-04-16 11:15 53.67265 -5.25093 10044 ft 339 kts 271°
2026-04-16 11:15 53.67381 -5.28948 9997 ft 318 kts 271°
2026-04-16 11:15 53.67489 -5.32549 9996 ft 297 kts 271°
2026-04-16 11:15 53.67589 -5.35916 9994 ft 278 kts 271°
2026-04-16 11:16 53.67681 -5.39088 9998 ft 265 kts 271°
2026-04-16 11:16 53.67768 -5.42173 9757 ft 261 kts 270°
2026-04-16 11:16 53.67852 -5.45228 9293 ft 261 kts 270°
2026-04-16 11:16 53.67935 -5.48289 8839 ft 261 kts 270°
2026-04-16 11:17 53.68016 -5.51292 8414 ft 259 kts 270°
2026-04-16 11:17 53.68097 -5.54326 8079 ft 257 kts 270°
2026-04-16 11:17 53.68176 -5.57277 7998 ft 244 kts 270°
2026-04-16 11:17 53.68251 -5.60048 7996 ft 229 kts 270°
2026-04-16 11:18 53.68321 -5.62687 7978 ft 223 kts 269°
2026-04-16 11:18 53.68194 -5.65283 7662 ft 221 kts 253°
2026-04-16 11:18 53.67524 -5.67591 7323 ft 220 kts 234°
2026-04-16 11:18 53.66556 -5.69590 6989 ft 220 kts 230°
2026-04-16 11:19 53.65452 -5.71358 6654 ft 221 kts 216°
2026-04-16 11:19 53.64106 -5.72621 6349 ft 221 kts 209°
2026-04-16 11:19 53.62750 -5.73816 6028 ft 219 kts 211°
2026-04-16 11:19 53.61414 -5.75046 5710 ft 218 kts 211°
2026-04-16 11:20 53.60088 -5.76271 5399 ft 216 kts 211°
2026-04-16 11:20 53.58766 -5.77480 5081 ft 216 kts 211°
2026-04-16 11:20 53.57448 -5.78669 4777 ft 214 kts 211°
2026-04-16 11:20 53.56159 -5.79828 4490 ft 212 kts 211°
2026-04-16 11:21 53.54864 -5.81000 4155 ft 212 kts 211°
2026-04-16 11:21 53.53569 -5.82177 3830 ft 211 kts 211°
2026-04-16 11:21 53.52276 -5.83353 3498 ft 211 kts 211°
2026-04-16 11:21 53.50986 -5.84536 3187 ft 210 kts 211°
2026-04-16 11:22 53.49716 -5.85721 3008 ft 207 kts 211°
2026-04-16 11:22 53.48457 -5.86905 2990 ft 207 kts 211°
2026-04-16 11:22 53.47219 -5.88069 2985 ft 200 kts 211°
2026-04-16 11:22 53.46012 -5.89199 2990 ft 198 kts 211°
2026-04-16 11:23 53.44809 -5.90325 2993 ft 198 kts 211°
2026-04-16 11:23 53.43607 -5.91449 2998 ft 197 kts 211°
2026-04-16 11:23 53.42409 -5.92570 2994 ft 197 kts 211°
2026-04-16 11:23 53.41280 -5.93805 2981 ft 196 kts 230°
2026-04-16 11:24 53.40726 -5.95855 3002 ft 195 kts 254°
2026-04-16 11:24 53.40600 -5.98107 3011 ft 190 kts 268°
2026-04-16 11:24 53.40693 -6.00234 3000 ft 178 kts 270°
2026-04-16 11:24 53.40800 -6.02272 2966 ft 171 kts 271°
2026-04-16 11:25 53.40898 -6.04234 2752 ft 168 kts 270°
2026-04-16 11:25 53.41001 -6.06191 2489 ft 169 kts 270°
2026-04-16 11:25 53.41108 -6.08115 2234 ft 162 kts 270°
2026-04-16 11:25 53.41206 -6.09933 2020 ft 151 kts 269°
2026-04-16 11:26 53.41298 -6.11627 1830 ft 142 kts 269°
2026-04-16 11:26 53.41386 -6.13264 1629 ft 140 kts 268°
2026-04-16 11:26 53.41475 -6.14890 1453 ft 140 kts 269°
2026-04-16 11:26 53.41563 -6.16513 1249 ft 140 kts 268°
2026-04-16 11:27 53.41651 -6.18138 1052 ft 140 kts 270°
2026-04-16 11:27 53.41740 -6.19766 866 ft 140 kts 270°
2026-04-16 11:27 53.41826 -6.21358 688 ft 138 kts 271°
2026-04-16 11:27 53.41915 -6.22964 494 ft 138 kts 270°
2026-04-16 11:28 53.42001 -6.24569 313 ft 138 kts 270°
2026-04-16 11:28 53.42083 -6.26053 232 ft 95 kts 275°
2026-04-16 11:28 53.42116 -6.26677 234 ft 35 kts 275°
2026-04-16 11:28 53.42152 -6.27039 237 ft 20 kts 323°
2026-04-16 11:29 53.42290 -6.27036 228 ft 19 kts 25°
2026-04-16 11:29 53.42306 -6.26938 228 ft 7 kts 96°
2026-04-16 11:29 53.42299 -6.26835 228 ft 14 kts 96°
2026-04-16 11:29 53.42289 -6.26645 228 ft 17 kts 95°
2026-04-16 11:30 53.42278 -6.26452 229 ft 17 kts 96°
2026-04-16 11:30 53.42267 -6.26258 228 ft 17 kts 94°
2026-04-16 11:30 53.42258 -6.26062 228 ft 17 kts 94°
2026-04-16 11:30 53.42246 -6.25867 228 ft 17 kts 96°
2026-04-16 11:31 53.42235 -6.25671 229 ft 17 kts 95°
2026-04-16 11:31 53.42224 -6.25473 228 ft 17 kts 95°
2026-04-16 11:31 53.42212 -6.25274 228 ft 17 kts 95°
2026-04-16 11:31 53.42202 -6.25085 230 ft 16 kts 94°
2026-04-16 11:32 53.42191 -6.24897 230 ft 17 kts 95°
2026-04-16 11:32 53.42205 -6.24750 228 ft 9 kts 65°
2026-04-16 11:32 53.42216 -6.24645 228 ft 9 kts 94°
2026-04-16 11:32 53.42211 -6.24540 228 ft 9 kts 95°
2026-04-16 11:33 53.42205 -6.24435 228 ft 9 kts 96°
2026-04-16 11:33 53.42205 -6.24333 228 ft 8 kts 61°
2026-04-16 11:33 53.42243 -6.24341 228 ft 6 kts 329°
2026-04-16 11:33 53.42270 -6.24366 228 ft 1 kts 330°
2026-04-16 11:34 53.42273 -6.24369 228 ft 0 kts 330°